"Pseudo-MPEC" for C1FQCU5

Created 2026 Aug 26 0:35:03 UT using Find_Orb

Click here for an explanation of pseudo-MPECs

 
 Astrometry: 
     C1FQCU5*1C2026 08 22.29595822 10 49.505+28 18 49.43   ~8OFo 20.99GVNEOCPV00
     C1FQCU5 1C2026 08 22.30588022 10 48.868+28 18 46.69   ~8OFo 20.46GVNEOCPV00
     C1FQCU5 1C2026 08 22.31084322 10 48.526+28 18 44.57   ~8OFo       VNEOCPV00

Station data:
(V00) Kitt Peak-Bok  (N31.963125 W111.600190)  US/Arizona. Measurers T.
   Beuden, V. F. Carvajal, D. Fay, J. B. Fazekas, D. C. Fuls, A. R. Gibbs, A.
   D. Grauer, H. Gröller, J. K. Hogan, R. A. Kowalski, S. M. Larson, G. J.
   Leonard, D. Rankin, R. L. Seaman, F. C. Shelly, K. W. Wierzchoś. 2.25-m
   reflector + 4x4K mosaic CCD.

Orbital elements:  C1FQCU5
   Perihelion 2027 Jul 20.365638 +/- 394 TT =  8:46:31.1 (JD 2461606.865638)
Epoch 2026 Aug 22.0 TT = JDT 2461274.5   Earth MOID: 0.2751   Ma: 0.0984
M 264.972814663 +/- 80              (J2000 ecliptic)             AutoNEOCP
n   0.285911581 +/- 0.206           Peri.  276.586471 +/- 54
a   2.281996026 +/- 1.09            Node   207.896238 +/- 58
e   0.58615062 +/- 0.275            Incl.   32.737259 +/- 50
P   3.44725                H 16.19  G  0.15   U 11.7  SR
q 0.944402624 +/- 1.19    Q 3.619589428 +/- 32.9
From 3 observations 2026 Aug. 22 (21.4 min); mean residual 0".18
Residuals in arcseconds: 
260822 V00  .04-  .11-    260822 V00  .13+  .32+    260822 V00  .08-  .21-    

Ephemerides (geocentric):
Date (UTC) HH   RA             Dec           delta  r     elong  mag " sig PA
---- --------  ------------   ------------  ------ ------ -----  --- --------
2026 08 26 01  22 06 47.551   +27 56 21.56  2.1394 2.9962 141.4 21.0  17d 110
2026 08 26 02  22 06 44.838   +27 56 04.89  2.1391 2.9960 141.4 21.0  17d 110
2026 08 26 03  22 06 42.124   +27 55 48.17  2.1388 2.9958 141.4 20.9  17d 110
2026 08 26 04  22 06 39.411   +27 55 31.43  2.1385 2.9956 141.4 20.9  17d 110
2026 08 26 05  22 06 36.697   +27 55 14.64  2.1382 2.9955 141.4 20.9  17d 110
2026 08 26 06  22 06 33.982   +27 54 57.82  2.1379 2.9953 141.5 20.9  17d 110
2026 08 26 07  22 06 31.267   +27 54 40.96  2.1376 2.9951 141.5 20.9  17d 110
2026 08 26 08  22 06 28.552   +27 54 24.06  2.1373 2.9949 141.5 20.9  17d 110
2026 08 26 09  22 06 25.837   +27 54 07.13  2.1370 2.9947 141.5 20.9  17d 110
2026 08 26 10  22 06 23.121   +27 53 50.16  2.1367 2.9946 141.5 20.9  17d 110
2026 08 26 11  22 06 20.405   +27 53 33.15  2.1364 2.9944 141.5 20.9  17d 110
2026 08 26 12  22 06 17.688   +27 53 16.11  2.1362 2.9942 141.5 20.9 999' 110
2026 08 26 13  22 06 14.972   +27 52 59.03  2.1359 2.9940 141.6 20.9 998' 110
2026 08 26 14  22 06 12.255   +27 52 41.91  2.1356 2.9938 141.6 20.9 998' 110
2026 08 26 15  22 06 09.537   +27 52 24.76  2.1353 2.9937 141.6 20.9 997' 110
2026 08 26 16  22 06 06.820   +27 52 07.57  2.1350 2.9935 141.6 20.9 997' 110
2026 08 26 17  22 06 04.102   +27 51 50.34  2.1347 2.9933 141.6 20.9 996' 110
2026 08 26 18  22 06 01.383   +27 51 33.08  2.1344 2.9931 141.6 20.9 996' 110
2026 08 26 19  22 05 58.665   +27 51 15.78  2.1341 2.9929 141.7 20.9 996' 110
2026 08 26 20  22 05 55.946   +27 50 58.44  2.1338 2.9928 141.7 20.9 995' 110
2026 08 26 21  22 05 53.227   +27 50 41.06  2.1335 2.9926 141.7 20.9 995' 110
2026 08 26 22  22 05 50.508   +27 50 23.65  2.1332 2.9924 141.7 20.9 995' 110
2026 08 26 23  22 05 47.788   +27 50 06.20  2.1329 2.9922 141.7 20.9 994' 110
2026 08 27 00  22 05 45.068   +27 49 48.72  2.1326 2.9920 141.7 20.9 994' 110
2026 08 27 01  22 05 42.348   +27 49 31.20  2.1323 2.9919 141.7 20.9 994' 110
2026 08 27 02  22 05 39.628   +27 49 13.64  2.1320 2.9917 141.8 20.9 994' 110
2026 08 27 03  22 05 36.907   +27 48 56.04  2.1318 2.9915 141.8 20.9 993' 110
2026 08 27 04  22 05 34.186   +27 48 38.41  2.1315 2.9913 141.8 20.9 993' 110
2026 08 27 05  22 05 31.465   +27 48 20.74  2.1312 2.9911 141.8 20.9 993' 110
2026 08 27 06  22 05 28.743   +27 48 03.04  2.1309 2.9910 141.8 20.9 993' 110
2026 08 27 07  22 05 26.022   +27 47 45.30  2.1306 2.9908 141.8 20.9 992' 110
2026 08 27 08  22 05 23.300   +27 47 27.52  2.1303 2.9906 141.8 20.9 992' 110
2026 08 27 09  22 05 20.578   +27 47 09.70  2.1300 2.9904 141.9 20.9 992' 110
2026 08 27 10  22 05 17.855   +27 46 51.85  2.1297 2.9902 141.9 20.9 992' 110
2026 08 27 11  22 05 15.133   +27 46 33.96  2.1294 2.9901 141.9 20.9 992' 110
2026 08 27 12  22 05 12.410   +27 46 16.04  2.1292 2.9899 141.9 20.9 992' 110
2026 08 27 13  22 05 09.687   +27 45 58.07  2.1289 2.9897 141.9 20.9 991' 110
2026 08 27 14  22 05 06.964   +27 45 40.08  2.1286 2.9895 141.9 20.9 991' 110
2026 08 27 15  22 05 04.241   +27 45 22.04  2.1283 2.9893 141.9 20.9 991' 110
2026 08 27 16  22 05 01.517   +27 45 03.97  2.1280 2.9892 142.0 20.9 991' 110
2026 08 27 17  22 04 58.793   +27 44 45.86  2.1277 2.9890 142.0 20.9 991' 110
2026 08 27 18  22 04 56.069   +27 44 27.71  2.1274 2.9888 142.0 20.9 991' 110
2026 08 27 19  22 04 53.345   +27 44 09.53  2.1272 2.9886 142.0 20.9 991' 110
2026 08 27 20  22 04 50.621   +27 43 51.31  2.1269 2.9884 142.0 20.9 992' 110
2026 08 27 21  22 04 47.896   +27 43 33.06  2.1266 2.9883 142.0 20.9 992' 110
2026 08 27 22  22 04 45.171   +27 43 14.77  2.1263 2.9881 142.0 20.9 994' 110
2026 08 27 23  22 04 42.447   +27 42 56.44  2.1260 2.9879 142.0 20.9 998' 111
2026 08 28 00  22 04 39.722   +27 42 38.07  2.1257 2.9877 142.1 20.9  17d 112